DECAYED

STARLINK-1236, 45191 (Decayed)

Orbit data source: Space-Track

STARLINK-1236, 45191 was a payload satellite owned by SpaceX/Seattle (US) in LEO that was launched on Mon, 17 Feb 2020 UTC via an FALCON 9 launch vehicle from the Air Force Eastern Test Range (AFETR). Payload-class satellites include a variety of spacecraft equipped with specific instruments for various scientific and technological missions. These include communications satellites like Starlink; space stations such as the ISS; scientific satellites like the Hubble; Earth observation satellites from companies like Planet Labs, Umbra, and HawkEye 360; GPS; miniature CubeSats for education and research; and military/defense satellites.

Not visible in the next 10 days
Identifier
45191, 2020-012P
Orbit
Decayed
Country
Flag of USUS
Related business
Manufacturer
SpaceX/Seattle
Mission
Decayed Commercial Communications
Bus & Motor
STARLINK, Unknown motor
Mass
260 kg wet, ~248 kg dry
Launch date (UTC)
2020-02-17 (6 years ago)
Launch vehicle
FALCON 9
Launch site
Air Force Eastern Test Range (AFETR)
Object type
Payload
Rocket body
Debris
Shape & HBR
Box + 1 Pan, 10.1 m
Radar Cross Section
13.562 m², Large (>1 m²)

Expand to show TLE details & history
Last TLE update: 1 year ago

TLE from 1 year ago
0 STARLINK-1236
1 45191U 20012P   25037.76635520  .09346981  12343-4  54989-3 0  9991
2 45191  53.0359 348.5839 0004051 194.9331 247.3357 16.41701812275003
Epoch: 2025-02-06T18:23Z
TLE epoch observation values (Epoch: 2025-02-06T18:23:33.089Z)
Latitude
52.49995°
Longitude
12.75159°
Altitude
168.624 km
Speed
7.811 km/s
True Right ascension
04h 23m 06s
True Declination
52° 19' 07"
Sunlit
Object was in full shadow at epoch
Visualization orbit readout
Latitude
Unknown
Longitude
Unknown
Altitude
Unknown
Speed
Unknown
Apparent Right ascension
Unknown
Apparent Declination
Unknown
Sunlit
N/A
Visualization observer readout
Local Sidereal Time
16:46:11
Azimuth
Unknown
Elevation
Unknown
Doppler factor
Unknown
Orbital elements
Apogee altitude
164.218 km
Perigee altitude
158.919 km
Semi-major axis
6,539.706 km
Eccentricity
0.00041
Inclination
53.0359°
RAAN
348.5839°
Arg. of periapsis
194.9331°
True anomaly
247.29287°
Mean anomaly
247.3357°
Eccentric anomaly
247.31429°
Mean motion
4.10399 °/min
Orbital period
87.72 mins
BSTAR
0.00054989
Loading maneuver chart data...
Computing Atmospheric mass density...

Documentation

Showing up to 5 results
|